Date String (YYYY-MM-DD hh:mm:ss) UTC,Instrument flags,absolute air pressure of the measurement (hPa),sample flow rate (lpm),inlet stack bypass flow (lpm),air temperature of the measurement (°C),ambient temperature measured by the external sensor (°C),aerosol sample conditioner tube jacket temperature (°C),OPC LED temperature (°C),internal box temperature (°C),relative humidity of the measurement (%),span deviation,mass concentration of particles derived from Lorenz-Mie calculation of OPC scattering (μg/m³),mass concentration of particles derived from Lorenz-Mie calculation of OPC scattering (μg/m³),mass concentration of particles derived from Lorenz-Mie calculation of OPC scattering (μg/m³)
DateTimeUTC,F1_M11,P_M11,Q1_M11,Q2_M11,T1_M11,T2_M11,T3_M11,T4_M11,T5_M11,U1_M11,ZSPAN_M11,X0_M11,X2_M11,X1_M11
2023-06-18 03:00:00,SystemResetWarning,0829.4,4.99,000.00,029.6,027.1,000.0,038.2,031.1,23.0,0000.0,0004.76,0002.81,0002.16
2023-06-18 03:01:00,SystemResetWarning,0829.4,5.02,000.00,029.6,027.4,000.0,038.2,031.1,23.0,0000.0,0004.74,0002.81,0002.17
2023-06-18 03:02:00,SystemResetWarning,0829.5,5.00,000.00,029.7,027.6,000.0,038.2,031.2,23.0,0000.0,0004.63,0002.77,0002.18
2023-06-18 03:03:00,SystemResetWarning,0829.5,4.99,000.00,029.7,027.7,000.0,038.2,031.3,23.1,0000.0,0004.54,0002.73,0002.21
2023-06-18 03:04:00,SystemResetWarning,0829.6,4.99,000.00,029.7,027.9,000.0,038.2,031.3,23.0,0000.0,0005.11,0002.71,0002.24
2023-06-18 03:05:00,SystemResetWarning,0829.6,5.01,000.00,029.7,028.0,000.0,038.2,031.3,23.0,0000.0,0005.12,0002.71,0002.25
2023-06-18 03:06:00,SystemResetWarning,0829.6,5.01,000.00,029.7,028.1,000.0,038.2,031.4,23.0,0000.0,0004.91,0002.67,0002.25
2023-06-18 03:07:00,SystemResetWarning,0829.7,5.00,000.00,029.8,028.2,000.0,038.2,031.4,23.1,0000.0,0004.69,0002.62,0002.23
2023-06-18 03:08:00,SystemResetWarning,0829.7,4.99,000.00,029.8,028.3,000.0,038.3,031.4,23.0,0000.0,0004.62,0002.58,0002.20
2023-06-18 03:09:00,SystemResetWarning,0829.7,5.00,000.00,029.8,028.3,000.0,038.3,031.4,23.0,0000.0,0004.58,0002.56,0002.19
2023-06-18 03:10:00,SystemResetWarning,0829.7,5.00,000.00,029.8,028.4,000.0,038.3,031.4,23.0,0000.0,0005.13,0002.58,0002.19
2023-06-18 03:11:00,SystemResetWarning,0829.7,5.00,000.00,029.9,028.4,000.0,038.3,031.5,23.0,0000.0,0006.02,0002.54,0002.16
2023-06-18 03:12:00,SystemResetWarning,0829.7,5.00,000.00,029.9,028.5,000.0,038.3,031.5,22.9,0000.0,0006.65,0002.55,0002.14
2023-06-18 03:13:00,SystemResetWarning,0829.7,5.00,000.00,029.9,028.5,000.0,038.4,031.5,22.8,0000.0,0006.71,0002.57,0002.13
2023-06-18 03:14:00,SystemResetWarning,0829.7,5.00,000.00,030.0,028.5,000.0,038.4,031.5,22.7,0000.0,0006.60,0002.57,0002.10
2023-06-18 03:15:00,SystemResetWarning,0829.7,5.00,000.00,030.0,028.6,000.0,038.4,031.6,22.7,0000.0,0005.83,0002.55,0002.08
2023-06-18 03:16:00,SystemResetWarning,0829.7,5.00,000.00,030.0,028.6,000.0,038.4,031.6,22.6,0000.0,0005.77,0002.54,0002.07
2023-06-18 03:17:00,SystemResetWarning,0829.8,5.00,000.00,030.0,028.3,000.0,038.4,031.6,22.5,0000.0,0005.93,0002.56,0002.07
2023-06-18 03:18:00,SystemResetWarning,0829.8,5.00,000.00,030.0,026.0,000.0,038.4,031.5,22.4,0000.0,0006.20,0002.59,0002.08
2023-06-18 03:19:00,SystemResetWarning,0829.7,5.01,000.00,030.0,024.7,000.0,038.3,031.4,22.4,0000.0,0006.19,0002.61,0002.10
2023-06-18 03:20:00,SystemResetWarning,0829.7,5.01,000.00,029.8,024.8,000.0,038.3,031.0,22.4,0000.0,0006.30,0002.66,0002.12
2023-06-18 03:21:00,SystemResetWarning,0829.7,4.99,000.00,029.7,025.2,000.0,038.3,030.9,22.6,0000.0,0005.72,0002.63,0002.11
2023-06-18 03:22:00,SystemResetWarning,0829.7,5.00,000.00,029.7,025.6,000.0,038.3,031.0,22.6,0000.0,0004.96,0002.61,0002.12
2023-06-18 03:23:00,SystemResetWarning,0829.7,5.00,000.00,029.7,026.1,000.0,038.3,031.0,22.5,0000.0,0005.02,0002.59,0002.13
2023-06-18 03:24:00,SystemResetWarning,0829.7,4.98,000.00,029.6,026.5,000.0,038.3,031.1,22.7,0000.0,0004.99,0002.58,0002.14
2023-06-18 03:25:00,SystemResetWarning,0829.8,5.00,000.00,029.6,026.8,000.0,038.2,031.1,22.6,0000.0,0005.06,0002.60,0002.15
2023-06-18 03:26:00,SystemResetWarning,0829.8,5.02,000.00,029.6,027.1,000.0,038.2,031.1,22.5,0000.0,0005.60,0002.59,0002.16
2023-06-18 03:27:00,SystemResetWarning,0829.8,5.00,000.00,029.6,027.3,000.0,038.2,031.1,22.4,0000.0,0005.84,0002.59,0002.16
2023-06-18 03:28:00,SystemResetWarning,0829.8,4.99,000.00,029.6,027.5,000.0,038.2,031.2,22.4,0000.0,0005.85,0002.65,0002.18
2023-06-18 03:29:00,SystemResetWarning,0829.8,5.00,000.00,029.7,027.7,000.0,038.2,031.2,22.2,0000.0,0005.63,0002.65,0002.19
2023-06-18 03:30:00,SystemResetWarning,0829.8,5.00,000.00,029.7,027.8,000.0,038.2,031.2,22.4,0000.0,0005.58,0002.65,0002.19
2023-06-18 03:31:00,SystemResetWarning,0829.9,5.00,000.00,029.7,027.9,000.0,038.2,031.3,22.2,0000.0,0005.54,0002.65,0002.19
2023-06-18 03:32:00,SystemResetWarning,0829.9,5.00,000.00,029.7,028.0,000.0,038.2,031.3,22.3,0000.0,0005.51,0002.63,0002.19
2023-06-18 03:33:00,SystemResetWarning,0829.9,5.00,000.00,029.7,028.1,000.0,038.2,031.3,22.2,0000.0,0005.59,0002.67,0002.20
2023-06-18 03:34:00,SystemResetWarning,0829.9,5.00,000.00,029.8,028.2,000.0,038.3,031.3,21.9,0000.0,0004.65,0002.70,0002.21
2023-06-18 03:35:00,SystemResetWarning,0829.9,5.00,000.00,029.8,028.2,000.0,038.3,031.4,21.8,0000.0,0004.89,0002.73,0002.21
2023-06-18 03:36:00,SystemResetWarning,0829.9,5.00,000.00,029.8,028.3,000.0,038.3,031.4,21.7,0000.0,0004.90,0002.75,0002.22
2023-06-18 03:37:00,SystemResetWarning,0830.0,5.00,000.00,029.8,028.3,000.0,038.3,031.4,21.5,0000.0,0004.41,0002.73,0002.23
2023-06-18 03:38:00,SystemResetWarning,0829.9,5.00,000.00,029.9,028.4,000.0,038.3,031.4,21.4,0000.0,0004.08,0002.75,0002.22
2023-06-18 03:39:00,SystemResetWarning,0830.0,5.00,000.00,029.9,028.4,000.0,038.3,031.5,20.7,0000.0,0004.04,0002.70,0002.21
2023-06-18 03:40:00,SystemResetWarning,0830.0,4.99,000.00,029.9,028.4,000.0,038.4,031.5,20.7,0000.0,0003.98,0002.67,0002.20
2023-06-18 03:41:00,SystemResetWarning,0829.9,4.99,000.00,029.9,028.5,000.0,038.4,031.5,21.2,0000.0,0004.00,0002.68,0002.20
2023-06-18 03:42:00,SystemResetWarning,0830.0,5.00,000.00,029.9,028.5,000.0,038.4,031.5,21.6,0000.0,0004.01,0002.66,0002.18
2023-06-18 03:43:00,SystemResetWarning,0830.0,5.00,000.00,030.0,028.5,000.0,038.4,031.6,21.6,0000.0,0003.96,0002.64,0002.17
2023-06-18 03:44:00,SystemResetWarning,0830.0,5.01,000.00,030.0,028.6,000.0,038.4,031.6,21.1,0000.0,0003.85,0002.60,0002.17
2023-06-18 03:45:00,SystemResetWarning,0830.0,5.01,000.00,030.0,028.6,000.0,038.5,031.6,20.7,0000.0,0003.68,0002.55,0002.16
2023-06-18 03:46:00,SystemResetWarning,0830.0,5.00,000.00,030.0,028.6,000.0,038.5,031.6,20.2,0000.0,0003.54,0002.53,0002.16
2023-06-18 03:47:00,SystemResetWarning,0830.0,5.00,000.00,030.0,028.6,000.0,038.5,031.7,19.8,0000.0,0003.49,0002.55,0002.18
2023-06-18 03:48:00,SystemResetWarning,0830.0,5.00,000.00,030.1,028.6,000.0,038.5,031.7,19.2,0000.0,0003.52,0002.56,0002.18
2023-06-18 03:49:00,SystemResetWarning,0830.0,5.00,000.00,030.1,028.6,000.0,038.5,031.7,18.6,0000.0,0003.45,0002.55,0002.19
2023-06-18 03:50:00,SystemResetWarning,0830.0,5.00,000.00,030.1,028.6,000.0,038.5,031.7,18.1,0000.0,0003.34,0002.53,0002.21
2023-06-18 03:51:00,SystemResetWarning,0830.0,4.98,000.00,030.1,027.5,000.0,038.5,031.7,18.1,0000.0,0003.47,0002.57,0002.24
2023-06-18 03:52:00,SystemResetWarning,0830.0,5.01,000.00,030.1,025.0,000.0,038.4,031.5,18.3,0000.0,0003.61,0002.60,0002.25
2023-06-18 03:53:00,SystemResetWarning,0829.9,5.01,000.00,030.0,024.6,000.0,038.4,031.4,18.6,0000.0,0003.91,0002.59,0002.26
2023-06-18 03:54:00,SystemResetWarning,0830.0,4.99,000.00,029.9,024.9,000.0,038.4,031.1,18.7,0000.0,0004.12,0002.65,0002.29
2023-06-18 03:55:00,SystemResetWarning,0829.9,5.00,000.00,029.8,025.3,000.0,038.4,031.0,18.7,0000.0,0004.30,0002.71,0002.31
2023-06-18 03:56:00,SystemResetWarning,0829.9,5.02,000.00,029.7,025.8,000.0,038.4,031.0,18.3,0000.0,0004.37,0002.73,0002.33
2023-06-18 03:57:00,SystemResetWarning,0829.9,4.99,000.00,029.7,026.2,000.0,038.3,031.0,17.9,0000.0,0004.47,0002.77,0002.34
2023-06-18 03:58:00,SystemResetWarning,0829.9,4.98,000.00,029.7,026.6,000.0,038.3,031.0,17.9,0000.0,0004.40,0002.74,0002.35
2023-06-18 03:59:00,SystemResetWarning,0829.9,5.01,000.00,029.7,026.9,000.0,038.3,031.1,17.6,0000.0,0005.19,0002.78,0002.36
